KUIPER-00604

导读

### KUIPER-00604(NORAD 69769)卫星摘要 KUIPER-00604是美国亚马逊公司“柯伊伯计划”(Project Kuiper)低轨宽带通信卫星星座的组网卫星之一,NORAD(北美空防司令部)空间物体编目编号为69769,所属国家为美国,属于有效载荷类人造卫星,运行于近地轨道(LEO)。该卫星作为柯伊伯星座的组成部分,与同批次卫星一同承担全球低轨卫星宽带互联网服务的部署任务,是亚马逊推进3232颗规模低轨通信星座组网、与星链等系统竞争卫星宽带市场的节点卫星之一,由美国东海岸航天发射场(AFETR)发射入轨。 (注:因该卫星为2026年最新入轨的批量组网卫星,公开细节有限,结合柯伊伯计划同期批次卫星参数及编目信息整理。)

Basic Information
目录编号:
69769
目录名称:
KUIPER-00604
国际标识:
2026-151G
轨道中心:
EARTH
卫星名称:
KUIPER-00604
卫星全名:
KUIPER-00604
卫星状态:
在轨 (已飞行65 天)
发射日期:
2026-07-02 UTC
国别 :
美国 (US)
星等 :
--
Orbit Information
数据来源 国际轨道数据
星历时间: 2026-09-05T20:25:11+0800
6小时前
查看轨道信息
半长轴: 7018.424km
偏心率: 0.0002777
轨道倾角: 51.903°
近地点辐角 327.849°
升交点赤经 295.282°
平近点角 32.231°
近地点: 638.337km
远地点: 642.237km
周期: 97.526分钟
每日圈数: 14.765339
Detailed Information
使用方式:
暂无
2D Orbit Map
3D Orbit Map
Orbit Altitude Analysis Chart
Orbit Inclination Analysis Chart
Orbit Comprehensive Analysis Chart
View Comprehensive Chart
Conjunction Data List
Event ID Objects TCA Miss Dist (km) Collision Risk Probability Collision Risk Index (CRI) Action
CDM_260906-183604-326006-976923
2026-09-06T
18:36:06+0000
0.482 km
远距离
1.365744E-4 高风险 0.78
CDM_260902-002503-926906-976921
POPACS 2 (39269)
2026-09-02T
00:25:45+0000
0.698 km
远距离
7.158861E-5 中风险 0.72
CDM_260830-032106-597006-976921
2026-08-30T
03:21:25+0000
2.875 km
极远距离
6.227987E-7 极低风险 0.31